Regional Weather Roundup
Issued by NWS Wakefield, VA

Home | Current Version | Previous Version | Text Only | Print | Product List | Glossary On
Versions: 1 2 3 4 5 6 7 8 9 10 11 12 13 14 15 16 17 18 19 20 21 22 23 24 25 26 27 28 29 30 31 32 33 34 35 36 37 38 39 40 41 42 43 44 45 46 47 48 49 50
000
ASUS41 KAKQ 031315
RWRAKQ

REGIONAL WEATHER ROUNDUP
NATIONAL WEATHER SERVICE WAKEFIELD VA
900 AM EDT WED JUN 03 2015

Note: "fair" indicates few or no clouds below 12,000 feet with no
significant weather and/or obstructions to visibility. * = Denotes
station may not report precipitation (e.g., rain,snow,etc.),
thunder or fog.

VAZ042-051-052>054-056-031400-
NORTHERN VIRGINIA

CITY           SKY/WX    TMP DP  RH WIND       PRES   REMARKS
WASH NATIONAL  CLOUDY    60  55  83 NE13G20   30.19R
DULLES         CLOUDY    57  53  86 E8        30.18R
FORT BELVOIR   CLOUDY    57  55  92 VRB5      30.18R
QUANTICO       LGT RAIN  59  55  87 E16G22    30.18R
FREDERICKSBRG* CLOUDY    60  60 100 NE7       30.16R
STAFFORD*      CLOUDY    57  56  94 NE7       30.21R FOG
WARRENTON      CLOUDY    58  58  99 NE7       30.18R FOG
CULPEPER*      CLOUDY    57  56  94 CALM      30.18R
MANASSAS*      CLOUDY    57  57 100 NE7       30.18R
LEESBURG*      CLOUDY    59  55  88 NE5       30.20R
WINCHESTER     CLOUDY    59  55  88 E3        30.19R
FRONT ROYAL*   CLOUDY    55  54  94 NE5       30.18R
LURAY*         CLOUDY    59  59 100 N10       30.17R
$$

VAZ048-049-060>072-079>083-031400-
CENTRAL AND SOUTH CENTRAL VIRGINIA

CITY           SKY/WX    TMP DP  RH WIND       PRES   REMARKS
RICHMOND       CLOUDY    60  57  89 NE10      30.13R
CHESTERFIELD*  NOT AVBL
PETERSBURG*    CLOUDY    62  62 100 NE12      30.12R
HANOVER        CLOUDY    59  57  93 MISG      30.15R
TAPPAHANNOCK*  CLOUDY    60  56  86 N8        30.15R
QUINTON*       CLOUDY    59  58  97 NE5       30.12R
CHARLOTTSVILLE CLOUDY    58  55  90 NE13      30.16R FOG
GORDONSVILLE*  CLOUDY    57  55  94 N7        30.15R
ORANGE*        CLOUDY    59  55  88 N6        30.17R
LOUISA*        CLOUDY    59  57  94 NE9       30.14R FOG
BUMPASS*       CLOUDY    57  56  97 NE5       30.15R
FARMVILLE*     DRIZZLE   59  59 100 N7        30.12R
CREWE*         CLOUDY    59  58  96 NE5       30.12R
FORT PICKETT*  CLOUDY    59  57  94 NE8       30.11R
CHASE CITY*    CLOUDY    61  61 100 N5        30.11R
CLARKSVILLE*   CLOUDY    59  59 100 CALM      30.09R
SOUTH HILL*    CLOUDY    60  59  98 CALM      30.15R
LAWRENCEVILLE* CLOUDY    61  61 100 NE7       30.10R
EMPORIA*       DRIZZLE   61  61 100 N6        30.11R
$$

VAZ088>098-031400-
SOUTHEAST VIRGINIA

CITY           SKY/WX    TMP DP  RH WIND       PRES   REMARKS
NORFOLK        CLOUDY    64  61  90 NE10G22   30.09R
VIRGINIA BEACH CLOUDY    67  63  87 N13       30.07S
NORFOLK NAVAL  CLOUDY    69  61  75 NE17      30.11R
WEST POINT*    CLOUDY    63  60  90 NE6       30.13R
SALUDA*        CLOUDY    61  58  91 NE8       30.12R
NEWPORT NEWS   LGT RAIN  68  62  81 NE9G16    30.10R
LANGLEY AFB    CLOUDY    64  62  91 NE10      30.09R
FORT EUSTIS    CLOUDY    64 N/A N/A NE8       30.08R
WILLIAMSBURG*  CLOUDY    66  64  94 NE3       30.11R
HR EXEC AP*    CLOUDY    64  63  94 NE5       30.11R
FRANKLIN*      CLOUDY    64  63  97 NE6       30.10R FOG
WAKEFIELD      CLOUDY    64  61  90 VRB5      30.10R FOG
$$

VAZ020-022-025-037-045-031400-
WEST CENTRAL AND SOUTHWEST VIRGINIA

CITY           SKY/WX    TMP DP  RH WIND       PRES   REMARKS
STAUNTON*      DRIZZLE   59  57  92 NE6       30.18R
WAYNESBORO*    CLOUDY    55  54  98 N7        30.15R
HOT SPRINGS VA RAIN      51  51 100 E9        30.15R VSB<1/4
LYNCHBURG      CLOUDY    56  55  97 NE13      30.14R
DANVILLE       CLOUDY    60  57  89 NE12      30.10R FOG
SOUTH BOSTON*  CLOUDY    59  57  94 N7        30.11R
MARTINSVILLE   DRIZZLE   59  59 100 NE5       30.13R
ROANOKE        CLOUDY    59  57  93 NE6       30.15R FOG
BLACKSBURG     CLOUDY    58  56  94 E7        30.15R
DUBLIN*        CLOUDY    60  60 100 E7        30.13R
MARION*        CLOUDY    60  58  92 E8        30.14R
HILLSVILLE*    CLOUDY    58  56  96 E6        30.14R
RICHLANDS*     PTSUNNY   61  59  93 E3        30.10R
WISE*          FOG       59  59 100 E3        30.10R VSB<1/4
ABINGDON*      PTSUNNY   65  63  94 E8        30.07R
$$

MDZ021>025-VAZ099-100-031400-
SOUTHERN MARYLAND AND THE DELMARVA PENINSULA

CITY           SKY/WX    TMP DP  RH WIND       PRES   REMARKS
PATUXENT RIVER DRIZZLE   58  56  93 NE14      30.15R FOG
BAY BRIDGE APT   N/A    N/A N/A N/A NE7       30.19R
LEONARDTOWN    CLOUDY    55  54  94 NE6       30.17R
DOVER          CLOUDY    56  55  97 NE14      30.15R
GEORGETOWN     LGT RAIN  57  55  93 NE16      30.17R
EASTON         CLOUDY    57  57 100 NE12      30.21R
CAMBRIDGE      CLOUDY    59  55  88 NE8       30.15R
SALISBURY      LGT RAIN  57  56  96 NE13      30.14R
OCEAN CITY     CLOUDY    59  57  93 NE14G21   30.14R FOG
WALLOPS ISLAND CLOUDY    61  61 100 NE20G28   30.12R
ACCOMACK*      CLOUDY    61  61 100 NE15G21   30.10R
$$

NCZ012>017-030>032-031400-
NORTH CENTRAL AND EASTERN NORTH CAROLINA

CITY           SKY/WX    TMP DP  RH WIND       PRES   REMARKS
ROANOKE RAPIDS RAIN      63  63 100 NE8       30.08R
RALEIGH        CLOUDY    63  61  93 NE6       30.07R FOG
ELIZABETH CITY LGT RAIN  66  64  93 N13       30.07R
AHOSKIE*       LGT RAIN  64  63  96 NE7       30.07R
EDENTON*       RAIN      64  64  97 NE5       30.07R
CURRITUCK*     CLOUDY    66  64  94 N7G16     30.08R FOG
KILL DEVIL HLS CLOUDY    65  65  99 N6        30.05R
MANTEO         LGT RAIN  66  66  99 N10       30.06R
CAPE HATTERAS  CLOUDY    75  68  78 SW9       30.03S
TARBORO*       CLOUDY    67  65  93 NE3       30.07R
GOLDSBORO      CLOUDY    70  70 100 E6        30.01S
WASHINGTON     LGT RAIN  67  66  97 E8        30.08R
GREENVILLE     DRIZZLE   68  68 100 E5        30.06R
NEW BERN       LGT RAIN  69  67  93 E7        30.06R
WILMINGTON     LGT RAIN  69  67  93 E5        30.02S
$$

VAZ048-031400-
ELSEWHERE

CITY           SKY/WX    TMP DP  RH WIND       PRES   REMARKS
HARRISBURG PA  CLOUDY    61  53  75 E6        30.21R
BALTIMORE      CLOUDY    56  53  90 NE14      30.19R
ANNAPOLIS      CLOUDY    57  55  93 NE7       30.19R
ANDREWS AFB    CLOUDY    56  56  99 NE12      30.17R
PHILADELPHIA   CLOUDY    57  49  74 NE15G22   30.21S
HENDERSON NC   CLOUDY    61  59  94 NE8       30.08R FOG
GREENSBORO     DRIZZLE   61  59  93 NE9G16    30.08R FOG
ROCKY MOUNT    CLOUDY    66  65  96 NE12      30.06R FOG
$$

VAZ100-031400-
MARINE

STATION/POSITION TIME  TEMP    WIND        PRES    WAVE   SWELL
                       AIR SEA DIR/SP/G            HT/PER HT/PER
                 (UTC) (F)     (DEG/KT/KT) (MB)    (FT/S) (FT/S)
BRANDYWINE LGT   1200   56 65   70/ 22/ 25 1021.0R
CAPE MAY NJ      1200   56 63   50/  7/ 13 1020.7R
LEWES DE         1200   57 62   60/ 18/ 21 1020.7R
15NM E FENWICK I 1250   60 64              1019.5R   7/ 7
OCEAN-CITY-INLET 1200   59 58   70/  6/ 13 1019.7R
WACHAPREAGUE VA  1200   62 68   40/ 22/ 26 1018.7R
THOMAS POINT MD  1300   57 71   30/ 13/ 16 1022.6R
GOOSES REEF MD   1300   59 71   60/ 14/ 17 1022.3R   2/ 3
COVE POINT MD    1200   57      60/ 12/ 15 1021.1R
SOLOMONS ISLAND  1200      71                N/A
BISHOPS HEAD MD  1200   59 68   40/ 14/ 18 1019.4R
PINEY POINT MD   1200           80/ 12/ 15   N/A
CAMBRIDGE MD     1200   58 73   50/ 13/ 18 1020.4R
LEWISETTA VA     1200   61 71              1019.7R
RAPPAHANNOCK LGT 1200           30/ 18/ 19 1019.1R
STINGRAY PT      1300   64 72   50/ 17/ 21 1019.0R   3/ 3
YORK RVR RNG VA  1200   65      40/ 19/ 21 1017.8R
YORKTOWN VA      1200   64 74   40/ 12/ 16 1018.4R
JAMESTOWN VA     1300   63 79   50/  6/ 10   N/A
DOMINION TERM VA 1200   65      30/  7/ 12 1018.4R
KIPTOPEKE VA     1200      71   60/ 10/ 20   N/A
CHES BAY BRIDGE  1200   63 69   30/ 19/ 23 1017.2R
CAPE HENRY VA    1200   62      30/ 23/ 29 1016.5R
CHESAPEAKE LGHT  1200   65      20/ 23/ 24 1017.6R
WILLOUBY STN VA  1200   65      40/ 18/ 20 1019.0R
CAPE HENRY BUOY  1228      68                N/A     5/ 6
1ST LANDING BUOY 1300      62              1018.4R
CAPE CHARLES BUO 1226      66                N/A     4/ 7   2/ 7
OFFSHORE WE BUOY 1211      69                N/A     5/ 7   3/ 7
64NM E OF VA BCH 1250   74 74   60/  2/  4 1017.0R   4/ 7   3/ 7
DUCK PIER NC     1200   61 58  350/ 13/ 14 1016.4R
44100 DUCK FRF   1224      72                N/A     5/ 7
44056 DUCK FRF   1211      64                N/A     4/ 6
OREGON INLET NC  1200   71 69  350/  8/ 13 1016.9R
HATTERAS NC      1200   75 77  200/  8/ 11 1016.0R
DIAMOND SHLS NC  1250   76 81  240/  6/  8 1016.7R   3/ 8   3/ 8
CAPE LOOKOUT NC  1300   70     300/  9/ 10 1017.1R
$$


USA.gov is the U.S. government's official web portal to all federal, state and local government web resources and services.